This is the latest recevied weather packets stored in our database for station/object VR2HK-13. If no packets are shown the sender has not sent any weather packets the latest 1 day(s).
| Time | Temp. | Humidity | Pressure | Rain* | Wind** | Luminosity | Snow |
|---|---|---|---|---|---|---|---|
| 1778004502 | 21.11° C | 87% | 1012.4 hPa | 0 mm | 1.79 m/s, 260° | - | - |
| 1778004300 | 21.11° C | 87% | 1012.5 hPa | 0 mm | 0.89 m/s, 262° | - | - |
| 1778004191 | 21.11° C | 87% | 1012.4 hPa | 0 mm | 0.89 m/s, 306° | - | - |
| 1778004000 | 21.11° C | 87% | 1012.4 hPa | 0 mm | 0.89 m/s, 307° | - | - |
| 1778003882 | 21.11° C | 88% | 1012.5 hPa | 0 mm | 0.45 m/s, 11° | - | - |
| 1778003700 | 21.11° C | 88% | 1012.5 hPa | 0 mm | 1.79 m/s, 219° | - | - |
| 1778003572 | 21.11° C | 88% | 1012.6 hPa | 0 mm | 1.34 m/s, 347° | - | - |
| 1778003401 | 21.11° C | 88% | 1012.6 hPa | 0 mm | 2.68 m/s, 229° | - | - |
| 1778003261 | 21.11° C | 88% | 1012.7 hPa | 0 mm | 2.24 m/s, 263° | - | - |
| 1778003100 | 21.11° C | 88% | 1012.6 hPa | 0 mm | 1.79 m/s, 247° | - | - |
| 1778002951 | 21.11° C | 88% | 1012.6 hPa | 0 mm | 1.34 m/s, 275° | - | - |
| 1778002800 | 21.11° C | 88% | 1012.6 hPa | 0 mm | 0.89 m/s, 273° | - | - |
| 1778002642 | 21.11° C | 88% | 1012.7 hPa | 0 mm | 2.24 m/s, 236° | - | - |
| 1778002332 | 21.11° C | 88% | 1012.7 hPa | 0 mm | 0 m/s | - | - |
| 1778002021 | 21.11° C | 88% | 1012.8 hPa | 0 mm | 0.89 m/s, 72° | - | - |
| 1778001900 | 21.11° C | 88% | 1012.7 hPa | 0 mm | 0.45 m/s, 6° | - | - |
| 1778001711 | 21.11° C | 88% | 1012.7 hPa | 0 mm | 1.34 m/s, 14° | - | - |
| 1778001600 | 21.11° C | 89% | 1012.8 hPa | 0 mm | 0.45 m/s, 270° | - | - |
| 1778001402 | 21.11° C | 89% | 1012.9 hPa | 0 mm | 0.45 m/s, 12° | - | - |
| 1778001300 | 21.11° C | 89% | 1012.9 hPa | 0 mm | 2.24 m/s, 262° | - | - |
| 1778001091 | 21.11° C | 89% | 1013 hPa | 0 mm | 0 m/s | - | - |
| 1778001000 | 21.11° C | 89% | 1013 hPa | 0 mm | 1.79 m/s, 255° | - | - |
| 1778000781 | 21.11° C | 89% | 1013 hPa | 0 mm | 1.34 m/s, 265° | - | - |
| 1778000700 | 21.11° C | 89% | 1013 hPa | 0 mm | 0.89 m/s, 325° | - | - |
| 1778000471 | 21.11° C | 89% | 1013 hPa | 0 mm | 0.45 m/s, 252° | - | - |
* Rain latest hour (hover to see other rain measurements)
** Current wind speed in m/s (hover to see current wind gust speed)